Location: Ladrillo (historical)
(32.8195°N, 117.2231°W)
Time: 21:49:04
(UTC+00:00)

Cosmos 1300 - Pass Details

Date: 29 October 2020
Orbit: 511 x 513 km, 82.5° (Epoch: 25 November)

Event Time Altitude Azimuth Distance (km) Brightness Sun altitude
Exits shadow 12:46:04 - 349° (NNW) 2,606 6.1 -17.0°
Reaches altitude 10° 12:48:10 10° 345° (NNW) 1,738 5.2 -16.6°
Maximum altitude 12:51:55 59° 266° (W) 597 2.6 -15.8°
Drops below altitude 10° 12:55:38 10° 187° (S) 1,725 5.4 -15.0°
Sets 12:57:46 0° 183° (S) 2,606 6.3 -14.6°
